Weather History for Broken Bow, NE

Change the Weather History Date:

Wednesday, February 6, 2013

  Actual Average Record
Temperature  
Mean Temperature 47 °F 26 °F  
Max Temperature 61 °F 39 °F 68 °F (2009)
Min Temperature 33 °F 14 °F -22 °F (1936)
Degree Days  
Heating Degree Days 18 39  
Month to date heating degree days 164 234  
Cooling Degree Days 0 0  
Month to date cooling degree days 0 0  
Year to date cooling degree days 0 0  
Moisture  
Dew Point 27 °F    
Average Humidity 53    
Maximum Humidity 75    
Minimum Humidity 30    
Precipitation  
Precipitation 0.00 in 0.02 in 0.50 in (1929)
Sea Level Pressure  
Sea Level Pressure 29.86 in    
Wind  
Wind Speed 11 mph (SW)    
Max Wind Speed 21 mph    
Max Gust Speed 26 mph    
Visibility 10 miles    
Events      
T = Trace of Precipitation, MM = Missing Value Source: NWS Daily Summary

Daily Weather History Graph

Daily Weather History Graph

Search for Another Location

Airport:

Trip Planner

Search our weather history database for the weather conditions in past years. The results will help you decide how hot, cold, wet, or windy it might be!

Date:

Astronomy

Feb. 06, 2013 Rise Set
Actual Time 7:44 AM CST 6:01 PM CST
Civil Twilight 7:15 AM CST 6:30 PM CST
Nautical Twilight 6:42 AM CST 7:03 PM CST
Astronomical Twilight 6:10 AM CST 7:35 PM CST
Moon 4:31 AM CST (2/6) 2:20 PM CST (2/6)
Length of Visible Light 11h 14m
Length of Day
10h 17m
Waning Crescent, 17% of the Moon is Illuminated
Feb 6
Waning Crescent
Feb 10
New
Feb 17
First Quarter
Feb 25
Full
Mar 4
Last Quarter

Hourly Weather History & Observations

Time (CST) Temp. Windchill Dew Point Humidity Pressure Visibility Wind Dir Wind Speed Gust Speed Precip Events Conditions
12:53 AM 37.0 °F 29.8 °F 27.0 °F 67% 29.94 in 10.0 mi South 10.4 mph - N/A   Clear
1:53 AM 37.0 °F 28.5 °F 27.0 °F 67% 29.93 in 10.0 mi South 13.8 mph 26.5 mph N/A   Clear
2:53 AM 35.1 °F 26.9 °F 27.0 °F 72% 29.94 in 10.0 mi South 11.5 mph 20.7 mph N/A   Clear
3:53 AM 34.0 °F 25.5 °F 27.0 °F 75% 29.91 in 10.0 mi South 11.5 mph - N/A   Clear
4:53 AM 36.0 °F 28.0 °F 28.0 °F 73% 29.89 in 10.0 mi South 11.5 mph 23.0 mph N/A   Clear
5:53 AM 37.0 °F 29.3 °F 28.0 °F 70% 29.88 in 10.0 mi South 11.5 mph - N/A   Partly Cloudy
6:53 AM 37.4 °F 29.8 °F 26.6 °F 65% 29.83 in 10.0 mi South 11.5 mph - N/A   Partly Cloudy
7:53 AM 37.9 °F 30.9 °F 26.1 °F 62% 29.88 in 10.0 mi South 10.4 mph - N/A   Mostly Cloudy
8:53 AM 39.0 °F 31.8 °F 26.1 °F 60% 29.87 in 10.0 mi South 11.5 mph - N/A   Partly Cloudy
9:53 AM 44.1 °F 40.1 °F 26.1 °F 49% 29.83 in 10.0 mi Variable 6.9 mph - N/A   Partly Cloudy
10:53 AM 46.9 °F - 26.1 °F 44% 29.83 in 10.0 mi SW 5.8 mph - N/A   Clear
11:53 AM 50.0 °F - 28.0 °F 43% 29.83 in 10.0 mi SW 10.4 mph - N/A   Clear
12:53 PM 55.9 °F - 30.9 °F 39% 29.78 in 10.0 mi WSW 12.7 mph 17.3 mph N/A   Scattered Clouds
1:53 PM 57.9 °F - 28.0 °F 32% 29.76 in 10.0 mi SSW 16.1 mph 26.5 mph N/A   Partly Cloudy
2:53 PM 57.0 °F - 27.0 °F 32% 29.75 in 10.0 mi West 5.8 mph - N/A   Mostly Cloudy
3:53 PM 55.9 °F - 24.1 °F 29% 29.76 in 10.0 mi NW 5.8 mph - N/A   Scattered Clouds
4:53 PM 53.1 °F - 24.1 °F 32% 29.78 in 10.0 mi NNW 8.1 mph - N/A   Partly Cloudy
5:53 PM 50.0 °F - 25.0 °F 38% 29.81 in 10.0 mi North 11.5 mph - N/A   Scattered Clouds
6:53 PM 46.9 °F - 26.1 °F 44% 29.85 in 10.0 mi North 8.1 mph - N/A   Overcast
7:53 PM 46.0 °F 39.3 °F 27.0 °F 47% 29.88 in 10.0 mi North 16.1 mph - N/A   Clear
8:53 PM 43.0 °F 36.0 °F 28.0 °F 56% 29.91 in 10.0 mi NNE 13.8 mph 20.7 mph N/A   Clear
9:53 PM 41.0 °F 34.3 °F 27.0 °F 57% 29.93 in 10.0 mi North 11.5 mph - N/A   Clear
10:53 PM 39.0 °F 31.4 °F 28.0 °F 65% 29.95 in 10.0 mi North 12.7 mph - N/A   Clear
11:53 PM 39.9 °F 32.1 °F 28.0 °F 63% 29.96 in 10.0 mi North 13.8 mph - N/A   Clear